| time (UTC) | temp F | wind direction | speed MPH | gust MPH | rain 1hr in | rain 24hr in | rain mn in | humidity % | barometer mb |
| 20260904071526 | 65 | 339 | 0.0 | 0.0 | 0.00 | 0.63 | 0.00 | 96 | 1011.4 |
| 20260904070537 | 65 | 347 | 0.0 | 0.0 | 0.00 | 0.63 | 0.00 | 96 | 1011.3 |
| 20260904064424 | 67 | 176 | 0.0 | 0.0 | 0.00 | 0.63 | 0.00 | 96 | 1011.1 |
| 20260904063424 | 68 | 176 | 0.0 | 0.0 | 0.00 | 0.63 | 0.00 | 96 | 1011.3 |
| 20260904062409 | 68 | 176 | 0.0 | 0.0 | 0.00 | 0.63 | 0.00 | 97 | 1011.5 |
| 20260904061404 | 68 | 177 | 0.0 | 0.0 | 0.00 | 0.63 | 0.00 | 97 | 1011.5 |
| 20260904060417 | 68 | 80 | 0.0 | 0.0 | 0.00 | 0.63 | 0.00 | 97 | 1011.5 |
| 20260904054227 | 68 | 81 | 0.0 | 0.0 | 0.00 | 0.63 | 0.00 | 96 | 1011.7 |
| 20260904053202 | 68 | 142 | 0.0 | 0.0 | 0.00 | 0.63 | 0.00 | 97 | 1011.7 |
| 20260904052215 | 68 | 142 | 0.0 | 0.0 | 0.00 | 0.63 | 0.00 | 96 | 1011.7 |
| 20260904051155 | 68 | 142 | 0.0 | 0.0 | 0.00 | 0.63 | 0.00 | 96 | 1011.7 |
| 20260904045010 | 68 | 142 | 0.0 | 0.0 | 0.00 | 0.63 | 0.00 | 96 | 1011.8 |
| 20260904044027 | 68 | 142 | 0.0 | 0.0 | 0.00 | 0.63 | 0.00 | 96 | 1011.8 |
| 20260904043046 | 68 | 142 | 0.0 | 0.0 | 0.00 | 0.63 | 0.00 | 96 | 1011.9 |
| 20260904040942 | 68 | 142 | 0.0 | 0.0 | 0.00 | 0.63 | 0.00 | 96 | 1011.8 |
| 20260904035918 | 68 | 142 | 0.0 | 0.0 | 0.00 | 0.63 | 0.63 | 96 | 1011.8 |
| 20260904034928 | 68 | 142 | 0.0 | 0.0 | 0.00 | 0.63 | 0.63 | 96 | 1011.8 |
| 20260904033929 | 68 | 142 | 0.0 | 0.0 | 0.00 | 0.63 | 0.63 | 96 | 1011.7 |
| 20260904032907 | 68 | 142 | 0.0 | 0.0 | 0.00 | 0.63 | 0.63 | 96 | 1011.6 |
| 20260904031843 | 68 | 142 | 0.0 | 0.0 | 0.00 | 0.63 | 0.63 | 95 | 1011.4 |
| 20260904030823 | 68 | 142 | 0.0 | 0.0 | 0.00 | 0.63 | 0.63 | 95 | 1011.4 |
| 20260904025821 | 69 | 143 | 0.0 | 0.0 | 0.00 | 0.63 | 0.63 | 95 | 1011.4 |
| 20260904024758 | 69 | 143 | 0.0 | 0.0 | 0.00 | 0.63 | 0.63 | 95 | 1011.4 |
| 20260904023803 | 69 | 143 | 0.0 | 0.0 | 0.00 | 0.63 | 0.63 | 95 | 1011.5 |
| 20260904022742 | 69 | 143 | 0.0 | 0.0 | 0.00 | 0.63 | 0.63 | 95 | 1011.4 |
| 20260904020625 | 69 | 143 | 0.0 | 0.0 | 0.04 | 0.62 | 0.62 | 94 | 1011.7 |
| 20260904015647 | 69 | 142 | 0.0 | 0.0 | 0.08 | 0.63 | 0.62 | 94 | 1011.4 |
| 20260904013445 | 70 | 347 | 0.0 | 2.0 | 0.91 | 0.32 | 0.30 | 92 | 1011.6 |
| 20260904012505 | 71 | 350 | 0.0 | 2.0 | 0.43 | 0.07 | 0.05 | 91 | 1011.5 |
| 20260904011513 | 72 | 340 | 0.0 | 0.0 | 0.13 | 0.03 | 0.02 | 91 | 1011.3 |
| 20260904010504 | 72 | 205 | 0.0 | 0.0 | 0.00 | 0.03 | 0.00 | 91 | 1011.0 |
| 20260904005445 | 72 | 205 | 0.0 | 0.0 | 0.00 | 0.05 | 0.00 | 91 | 1010.8 |
| 20260904004434 | 72 | 205 | 0.0 | 0.0 | 0.00 | 0.06 | 0.00 | 91 | 1010.9 |
| 20260904003420 | 72 | 205 | 0.0 | 0.0 | 0.00 | 0.07 | 0.00 | 91 | 1011.0 |
| 20260904002402 | 72 | 205 | 0.0 | 0.0 | 0.00 | 0.08 | 0.00 | 90 | 1010.9 |
| 20260904001420 | 73 | 205 | 0.0 | 0.0 | 0.00 | 0.10 | 0.00 | 90 | 1011.0 |
| 20260904000358 | 73 | 205 | 0.0 | 0.0 | 0.00 | 0.29 | 0.00 | 90 | 1011.1 |
| 20260903235346 | 73 | 205 | 0.0 | 0.0 | 0.00 | 1.12 | 0.00 | 90 | 1010.9 |
| 20260903234333 | 73 | 205 | 0.0 | 0.0 | 0.00 | 1.43 | 0.00 | 89 | 1010.9 |
| 20260903233313 | 73 | 205 | 0.0 | 0.0 | 0.00 | 1.43 | 0.00 | 89 | 1010.9 |
| 20260903231151 | 74 | 205 | 0.0 | 0.0 | 0.00 | 1.67 | 0.00 | 88 | 1011.1 |
| 20260903230138 | 74 | 205 | 0.0 | 0.0 | 0.00 | 1.84 | 0.00 | 87 | 1011.0 |
| 20260903225105 | 74 | 205 | 0.0 | 0.0 | 0.00 | 1.91 | 0.00 | 87 | 1011.0 |
| 20260903224039 | 75 | 1 | 0.0 | 0.0 | 0.00 | 1.91 | 0.00 | 87 | 1011.0 |
| 20260903221915 | 75 | 311 | 0.0 | 0.0 | 0.00 | 1.91 | 0.00 | 86 | 1010.8 |
| 20260903215744 | 75 | 40 | 0.0 | 0.0 | 0.00 | 1.91 | 0.00 | 85 | 1010.4 |
| 20260903214745 | 76 | 338 | 0.0 | 0.0 | 0.00 | 1.91 | 0.00 | 87 | 1010.4 |
| 20260903212707 | 76 | 338 | 0.0 | 0.0 | 0.00 | 1.91 | 0.00 | 88 | 1010.5 |
| 20260903211725 | 75 | 39 | 0.0 | 0.0 | 0.00 | 1.91 | 0.00 | 88 | 1010.5 |
| 20260903210718 | 76 | 12 | 0.0 | 0.0 | 0.00 | 1.91 | 0.00 | 86 | 1010.5 |
| 20260903205704 | 77 | 352 | 0.0 | 1.0 | 0.00 | 1.91 | 0.00 | 83 | 1010.4 |
| 20260903204637 | 79 | 356 | 0.0 | 2.0 | 0.00 | 1.91 | 0.00 | 78 | 1010.6 |
| 20260903203629 | 80 | 3 | 0.0 | 3.0 | 0.00 | 1.91 | 0.00 | 76 | 1010.6 |
| 20260903201450 | 84 | 332 | 0.0 | 9.0 | 0.00 | 1.91 | 0.00 | 68 | 1010.6 |
| 20260903195315 | 86 | 186 | 1.0 | 5.0 | 0.00 | 1.91 | 0.00 | 66 | 1010.7 |
| 20260903194309 | 86 | 180 | 0.0 | 5.0 | 0.00 | 1.91 | 0.00 | 68 | 1010.6 |
| 20260903193326 | 85 | 158 | 0.0 | 7.0 | 0.00 | 1.91 | 0.00 | 66 | 1010.7 |
| 20260903192252 | 85 | 42 | 1.0 | 7.0 | 0.00 | 1.91 | 0.00 | 66 | 1010.9 |
| 20260903191300 | 87 | 193 | 0.0 | 4.0 | 0.00 | 1.91 | 0.00 | 67 | 1010.7 |
| 20260903190229 | 86 | 123 | 0.0 | 6.0 | 0.00 | 1.91 | 0.00 | 68 | 1010.7 |
| 20260903184046 | 85 | 174 | 1.0 | 5.0 | 0.00 | 1.91 | 0.00 | 68 | 1011.1 |
| 20260903183015 | 84 | 219 | 0.0 | 6.0 | 0.00 | 1.91 | 0.00 | 71 | 1011.2 |
| 20260903182003 | 84 | 200 | 0.0 | 6.0 | 0.00 | 1.91 | 0.00 | 68 | 1011.3 |
| 20260903175827 | 83 | 173 | 0.0 | 3.0 | 0.00 | 1.91 | 0.00 | 69 | 1011.3 |
| 20260903174845 | 83 | 157 | 0.0 | 3.0 | 0.00 | 1.91 | 0.00 | 70 | 1011.4 |
| 20260903173836 | 83 | 191 | 1.0 | 6.0 | 0.00 | 1.91 | 0.00 | 72 | 1011.4 |
| 20260903172831 | 82 | 25 | 1.0 | 6.0 | 0.00 | 1.91 | 0.00 | 71 | 1011.4 |
| 20260903165615 | 82 | 15 | 0.0 | 3.0 | 0.00 | 1.91 | 0.00 | 71 | 1011.6 |
| 20260903164627 | 81 | 63 | 0.0 | 1.0 | 0.00 | 1.91 | 0.00 | 72 | 1011.6 |
| 20260903163620 | 80 | 351 | 0.0 | 1.0 | 0.00 | 1.91 | 0.00 | 73 | 1011.6 |
| 20260903162614 | 80 | 65 | 0.0 | 0.0 | 0.00 | 1.91 | 0.00 | 76 | 1011.8 |
| 20260903161605 | 79 | 4 | 0.0 | 0.0 | 0.00 | 1.91 | 0.00 | 76 | 1012.0 |
| 20260903155430 | 77 | 82 | 0.0 | 0.0 | 0.00 | 1.91 | 0.00 | 79 | 1012.2 |
| 20260903154426 | 77 | 141 | 0.0 | 1.0 | 0.00 | 1.91 | 0.00 | 82 | 1012.3 |
| 20260903153402 | 78 | 347 | 0.0 | 1.0 | 0.00 | 1.91 | 0.00 | 85 | 1012.3 |
| 20260903152400 | 78 | 74 | 0.0 | 0.0 | 0.00 | 1.91 | 0.00 | 89 | 1012.3 |
| 20260903151359 | 77 | 207 | 0.0 | 2.0 | 0.00 | 1.91 | 0.00 | 90 | 1012.3 |
| 20260903150345 | 76 | 240 | 0.0 | 0.0 | 0.00 | 1.91 | 0.00 | 93 | 1012.3 |
| 20260903145356 | 75 | 167 | 0.0 | 3.0 | 0.00 | 1.91 | 0.00 | 94 | 1012.3 |
| 20260903143327 | 74 | 192 | 0.0 | 0.0 | 0.00 | 1.91 | 0.00 | 97 | 1012.4 |
| 20260903142345 | 72 | 4 | 0.0 | 0.0 | 0.00 | 1.91 | 0.00 | 96 | 1012.4 |
| 20260903141330 | 72 | 148 | 0.0 | 0.0 | 0.00 | 1.91 | 0.00 | 97 | 1012.4 |
| 20260903140334 | 71 | 188 | 0.0 | 0.0 | 0.00 | 1.91 | 0.00 | 96 | 1012.4 |
| 20260903134208 | 71 | 165 | 0.0 | 0.0 | 0.00 | 1.91 | 0.00 | 97 | 1012.5 |
| 20260903133219 | 71 | 184 | 0.0 | 1.0 | 0.00 | 1.92 | 0.00 | 97 | 1012.5 |
| 20260903132234 | 71 | 160 | 0.0 | 2.0 | 0.00 | 1.92 | 0.00 | 97 | 1012.4 |
| 20260903131259 | 70 | 150 | 0.0 | 0.0 | 0.00 | 1.92 | 0.00 | 97 | 1012.5 |
| 20260903125206 | 69 | 150 | 0.0 | 1.0 | 0.00 | 1.98 | 0.00 | 97 | 1012.6 |
| 20260903124150 | 69 | 179 | 0.0 | 0.0 | 0.00 | 1.98 | 0.00 | 97 | 1012.6 |
| 20260903123132 | 69 | 183 | 0.0 | 0.0 | 0.00 | 1.99 | 0.00 | 97 | 1012.5 |
| 20260903122149 | 69 | 177 | 0.0 | 2.0 | 0.00 | 1.99 | 0.00 | 97 | 1012.5 |
| 20260903120008 | 68 | 182 | 0.0 | 0.0 | 0.00 | 1.99 | 0.00 | 97 | 1012.1 |
| 20260903115005 | 68 | 181 | 0.0 | 0.0 | 0.00 | 1.99 | 0.00 | 97 | 1012.0 |
| 20260903113942 | 68 | 169 | 0.0 | 0.0 | 0.00 | 1.99 | 0.00 | 97 | 1012.1 |
| 20260903112911 | 68 | 164 | 0.0 | 0.0 | 0.00 | 1.99 | 0.00 | 97 | 1012.0 |
| 20260903111930 | 68 | 164 | 0.0 | 0.0 | 0.00 | 1.99 | 0.00 | 97 | 1011.8 |
| 20260903110947 | 68 | 164 | 0.0 | 0.0 | 0.00 | 1.99 | 0.00 | 97 | 1011.5 |
| 20260903105952 | 68 | 167 | 0.0 | 0.0 | 0.00 | 1.99 | 0.00 | 97 | 1011.6 |
| 20260903104924 | 68 | 167 | 0.0 | 0.0 | 0.00 | 1.99 | 0.00 | 97 | 1011.6 |
| 20260903103852 | 68 | 165 | 0.0 | 0.0 | 0.00 | 1.99 | 0.00 | 97 | 1011.4 |
| 20260903102827 | 67 | 165 | 0.0 | 0.0 | 0.00 | 1.99 | 0.00 | 97 | 1011.3 |
| 20260903101804 | 67 | 165 | 0.0 | 0.0 | 0.00 | 1.99 | 0.00 | 97 | 1011.1 |
| 20260903100820 | 68 | 153 | 0.0 | 0.0 | 0.00 | 1.99 | 0.00 | 97 | 1011.0 |
| 20260903095748 | 68 | 153 | 0.0 | 0.0 | 0.00 | 1.99 | 0.00 | 97 | 1011.0 |
| 20260903094810 | 68 | 153 | 0.0 | 0.0 | 0.00 | 1.99 | 0.00 | 97 | 1011.1 |
| 20260903092709 | 68 | 170 | 0.0 | 0.0 | 0.00 | 1.99 | 0.00 | 97 | 1011.2 |
| 20260903090554 | 68 | 172 | 0.0 | 0.0 | 0.00 | 1.99 | 0.00 | 97 | 1011.2 |
| 20260903085606 | 68 | 172 | 0.0 | 0.0 | 0.00 | 1.99 | 0.00 | 97 | 1011.2 |
| 20260903083444 | 68 | 179 | 0.0 | 0.0 | 0.00 | 1.99 | 0.00 | 97 | 1010.9 |
| 20260903082508 | 68 | 179 | 0.0 | 0.0 | 0.00 | 1.99 | 0.00 | 97 | 1010.8 |
| 20260903081506 | 68 | 179 | 0.0 | 0.0 | 0.00 | 1.99 | 0.00 | 97 | 1010.9 |
| 20260903075316 | 68 | 167 | 0.0 | 2.0 | 0.00 | 1.99 | 0.00 | 97 | 1010.6 |
| 20260903074255 | 68 | 168 | 0.0 | 1.0 | 0.00 | 1.99 | 0.00 | 97 | 1010.7 |
| 20260903073250 | 68 | 206 | 0.0 | 0.0 | 0.00 | 1.99 | 0.00 | 97 | 1010.6 |
| 20260903072259 | 68 | 186 | 0.0 | 1.0 | 0.00 | 1.99 | 0.00 | 97 | 1010.8 |